Location: Gradaro
(45.0833°N, 10.8833°E)
Time: 04:23:05
(UTC+00:00)

YAOGAN 6 - Pass Details

Date: 29 November 2020
Orbit: 466 x 502 km, 97.0° (Epoch: 27 January)

Event Time Altitude Azimuth Distance (km) Brightness Sun altitude
Rises 05:22:29 0° 10° (N) 2,527 6.1 -12.1°
Reaches altitude 10° 05:24:33 10° 9° (N) 1,640 5.1 -11.8°
Maximum altitude 05:28:04 79° 284° (WNW) 483 2.4 -11.2°
Drops below altitude 10° 05:31:32 10° 197° (SSW) 1,618 5.3 -10.6°
Sets 05:33:34 0° 196° (SSW) 2,488 6.2 -10.3°
